• In Portugal
  • List of Countries
  • For 7 days
  • Water Temperature
  • Satellite Maps
  • Weather Map
  • Weather Widgets
  • user-avatar
    Login

    Hourly Weather Konstantyna

    Today, 18 August, Saturday

    Time Temperature Precipitation Wind Pressure Humidity
    00:00 +24°C° 0 mm 1 mps 710 mmHg 73%
    01:00 +24°C° 0 mm 1 mps 710 mmHg 74%
    02:00 +23°C° 0 mm 1 mps 710 mmHg 75%
    03:00 +23°C° 0 mm 1 mps 710 mmHg 76%
    04:00 +23°C° 0.5 mm 1 mps 710 mmHg 76%
    05:00 +23°C° 0.5 mm 1 mps 710 mmHg 76%
    06:00 +23°C° 0 mm 1 mps 711 mmHg 75%
    07:00 +25°C° 0.3 mm 1 mps 711 mmHg 68%
    08:00 +26°C° 0.3 mm 2 mps 711 mmHg 60%
    09:00 +28°C° 0.3 mm 2 mps 712 mmHg 53%
    10:00 +28°C° 0.3 mm 3 mps 712 mmHg 50%
    11:00 +29°C° 0.3 mm 3 mps 712 mmHg 47%
    12:00 +30°C° 0.3 mm 4 mps 712 mmHg 44%
    13:00 +30°C° 0.1 mm 4 mps 712 mmHg 44%
    14:00 +30°C° 0.1 mm 4 mps 712 mmHg 44%
    15:00 +30°C° 0.1 mm 5 mps 711 mmHg 45%
    16:00 +29°C° 0.1 mm 4 mps 711 mmHg 50%
    17:00 +28°C° 0.1 mm 4 mps 711 mmHg 55%
    18:00 +26°C° 0.1 mm 4 mps 711 mmHg 61%
    19:00 +26°C° 0.2 mm 3 mps 712 mmHg 64%
    20:00 +25°C° 0.2 mm 3 mps 712 mmHg 67%
    21:00 +24°C° 0.2 mm 2 mps 712 mmHg 71%
    22:00 +24°C° 0 mm 1 mps 712 mmHg 73%
    23:00 +23°C° 0 mm 1 mps 712 mmHg 74%

    Tomorrow, 19 August, Sunday

    Time Temperature Precipitation Wind Pressure Humidity
    00:00 +23°C° 0 mm 1 mps 712 mmHg 76%
    01:00 +23°C° 0 mm 1 mps 712 mmHg 77%
    02:00 +22°C° 0 mm 1 mps 711 mmHg 78%
    03:00 +22°C° 0 mm 1 mps 711 mmHg 79%
    04:00 +22°C° 0 mm 1 mps 711 mmHg 78%
    05:00 +22°C° 0 mm 1 mps 711 mmHg 76%
    06:00 +23°C° 0 mm 1 mps 711 mmHg 75%
    07:00 +24°C° 0 mm 1 mps 712 mmHg 68%
    08:00 +25°C° 0 mm 1 mps 712 mmHg 60%
    09:00 +27°C° 0 mm 2 mps 712 mmHg 53%
    10:00 +28°C° 0 mm 2 mps 712 mmHg 48%
    11:00 +29°C° 0 mm 3 mps 712 mmHg 43%
    12:00 +30°C° 0 mm 4 mps 712 mmHg 38%
    13:00 +30°C° 0 mm 4 mps 712 mmHg 39%
    14:00 +30°C° 0 mm 5 mps 712 mmHg 41%
    15:00 +29°C° 0 mm 5 mps 711 mmHg 42%
    16:00 +28°C° 0.2 mm 5 mps 711 mmHg 45%
    17:00 +27°C° 0.2 mm 5 mps 711 mmHg 48%
    18:00 +26°C° 0.2 mm 4 mps 711 mmHg 52%
    19:00 +25°C° 0 mm 4 mps 711 mmHg 56%
    20:00 +24°C° 0 mm 3 mps 711 mmHg 61%
    21:00 +23°C° 0 mm 2 mps 711 mmHg 66%
    22:00 +23°C° 0 mm 2 mps 711 mmHg 68%
    23:00 +23°C° 0 mm 1 mps 711 mmHg 70%

    Day after tomorrow, 20 August, Monday

    Time Temperature Precipitation Wind Pressure Humidity
    00:00 +22°C° 0 mm 1 mps 711 mmHg 73%
    01:00 +22°C° 0 mm 1 mps 711 mmHg 73%
    02:00 +22°C° 0 mm 1 mps 711 mmHg 74%
    03:00 +21°C° 0 mm 1 mps 710 mmHg 74%
    04:00 +22°C° 0 mm 1 mps 710 mmHg 73%
    05:00 +22°C° 0 mm 1 mps 710 mmHg 72%
    06:00 +22°C° 0 mm 1 mps 711 mmHg 71%
    07:00 +23°C° 0 mm 1 mps 711 mmHg 64%
    08:00 +24°C° 0 mm 2 mps 711 mmHg 58%
    09:00 +26°C° 0 mm 2 mps 712 mmHg 51%
    10:00 +27°C° 0.1 mm 2 mps 712 mmHg 48%
    11:00 +28°C° 0.1 mm 3 mps 712 mmHg 45%
    12:00 +29°C° 0.1 mm 3 mps 712 mmHg 42%
    13:00 +29°C° 0.3 mm 4 mps 711 mmHg 42%
    14:00 +29°C° 0.3 mm 4 mps 711 mmHg 42%
    15:00 +29°C° 0.3 mm 4 mps 711 mmHg 42%
    16:00 +28°C° 0.2 mm 4 mps 711 mmHg 47%
    17:00 +27°C° 0.2 mm 4 mps 711 mmHg 52%
    18:00 +26°C° 0.2 mm 4 mps 711 mmHg 57%
    19:00 +26°C° 0.2 mm 3 mps 711 mmHg 61%
    20:00 +25°C° 0.2 mm 3 mps 711 mmHg 66%
    21:00 +24°C° 0.2 mm 2 mps 711 mmHg 70%
    22:00 +24°C° 0 mm 2 mps 711 mmHg 71%
    23:00 +23°C° 0 mm 1 mps 711 mmHg 73%

    21 August, Tuesday

    Time Temperature Precipitation Wind Pressure Humidity
    00:00 +23°C° 0 mm 1 mps 711 mmHg 74%
    01:00 +23°C° 0 mm 1 mps 710 mmHg 74%
    02:00 +22°C° 0 mm 1 mps 710 mmHg 74%
    03:00 +22°C° 0 mm 1 mps 710 mmHg 74%
    04:00 +22°C° 0 mm 1 mps 710 mmHg 72%
    05:00 +22°C° 0 mm 1 mps 711 mmHg 69%
    06:00 +23°C° 0 mm 1 mps 711 mmHg 67%
    07:00 +24°C° 0 mm 1 mps 711 mmHg 60%
    08:00 +26°C° 0 mm 1 mps 711 mmHg 52%
    09:00 +27°C° 0 mm 2 mps 712 mmHg 44%
    10:00 +28°C° 0 mm 2 mps 712 mmHg 41%
    11:00 +29°C° 0 mm 2 mps 712 mmHg 38%
    12:00 +30°C° 0 mm 3 mps 711 mmHg 35%
    13:00 +31°C° 0 mm 3 mps 711 mmHg 35%
    14:00 +31°C° 0 mm 3 mps 711 mmHg 35%
    15:00 +31°C° 0 mm 3 mps 711 mmHg 36%
    16:00 +30°C° 0 mm 3 mps 711 mmHg 41%
    17:00 +29°C° 0 mm 3 mps 711 mmHg 45%
    18:00 +28°C° 0 mm 3 mps 711 mmHg 50%
    19:00 +27°C° 0 mm 3 mps 711 mmHg 55%
    20:00 +26°C° 0 mm 2 mps 711 mmHg 60%
    21:00 +25°C° 0 mm 2 mps 711 mmHg 65%
    22:00 +25°C° 0 mm 2 mps 711 mmHg 66%
    23:00 +25°C° 0 mm 1 mps 711 mmHg 68%

    22 August, Wednesday

    Time Temperature Precipitation Wind Pressure Humidity
    00:00 +24°C° 0 mm 1 mps 711 mmHg 69%
    01:00 +24°C° 0 mm 1 mps 710 mmHg 69%
    02:00 +24°C° 0 mm 1 mps 710 mmHg 70%
    03:00 +24°C° 0 mm 1 mps 710 mmHg 70%
    04:00 +24°C° 0 mm 1 mps 710 mmHg 68%
    05:00 +24°C° 0 mm 1 mps 710 mmHg 67%
    06:00 +25°C° 0 mm 1 mps 710 mmHg 65%
    07:00 +26°C° 0 mm 1 mps 711 mmHg 57%
    08:00 +28°C° 0 mm 1 mps 711 mmHg 50%
    09:00 +30°C° 0 mm 1 mps 712 mmHg 43%
    10:00 +31°C° 0 mm 1 mps 712 mmHg 39%
    11:00 +32°C° 0 mm 2 mps 711 mmHg 35%
    12:00 +34°C° 0 mm 3 mps 711 mmHg 31%
    13:00 +34°C° 0 mm 3 mps 711 mmHg 33%
    14:00 +33°C° 0 mm 3 mps 711 mmHg 35%
    15:00 +33°C° 0 mm 3 mps 711 mmHg 36%
    16:00 +30°C° 1.3 mm 3 mps 710 mmHg 43%
    17:00 +29°C° 1.3 mm 3 mps 710 mmHg 50%
    18:00 +28°C° 1.3 mm 3 mps 710 mmHg 57%
    19:00 +27°C° 0.6 mm 3 mps 711 mmHg 59%
    20:00 +26°C° 0.6 mm 3 mps 711 mmHg 61%
    21:00 +26°C° 0.6 mm 2 mps 711 mmHg 64%
    22:00 +26°C° 0.1 mm 2 mps 711 mmHg 63%
    23:00 +26°C° 0.1 mm 2 mps 710 mmHg 62%

    23 August, Thursday

    Time Temperature Precipitation Wind Pressure Humidity
    00:00 +26°C° 0.1 mm 2 mps 710 mmHg 61%
    01:00 +25°C° 0 mm 1 mps 710 mmHg 61%
    02:00 +25°C° 0 mm 1 mps 710 mmHg 62%
    03:00 +25°C° 0 mm 1 mps 709 mmHg 62%
    04:00 +25°C° 0 mm 1 mps 709 mmHg 60%
    05:00 +25°C° 0 mm 1 mps 710 mmHg 59%
    06:00 +26°C° 0 mm 1 mps 710 mmHg 58%
    07:00 +27°C° 0 mm 1 mps 710 mmHg 52%
    08:00 +28°C° 0 mm 1 mps 710 mmHg 47%
    09:00 +30°C° 0 mm 1 mps 711 mmHg 42%
    10:00 +31°C° 0 mm 1 mps 711 mmHg 39%
    11:00 +32°C° 0 mm 2 mps 710 mmHg 36%
    12:00 +34°C° 0 mm 2 mps 710 mmHg 33%
    13:00 +34°C° 0 mm 2 mps 710 mmHg 33%
    14:00 +34°C° 0 mm 2 mps 710 mmHg 34%
    15:00 +34°C° 0 mm 3 mps 710 mmHg 34%
    16:00 +31°C° 3 mm 3 mps 709 mmHg 45%
    17:00 +29°C° 3 mm 3 mps 709 mmHg 55%
    18:00 +27°C° 3 mm 4 mps 709 mmHg 65%
    19:00 +27°C° 2.2 mm 3 mps 709 mmHg 65%
    20:00 +26°C° 2.2 mm 2 mps 710 mmHg 64%
    21:00 +26°C° 2.2 mm 1 mps 711 mmHg 64%
    22:00 +26°C° 0.1 mm 1 mps 710 mmHg 64%
    23:00 +26°C° 0.1 mm 1 mps 710 mmHg 64%
    Show more